Skip Page Navigation
NASA JPL Caltech
NASA Logo - Jet Propulsion Laboratory + View the NASA Portal
+ Center for Near-Earth Object Studies
JPL Home Earth Solar System Stars & Galaxies Technology
JPL Solar System Dynamics
BODIES ORBITS EPHEMERIDES TOOLS PHYSICAL DATA DISCOVERY FAQ SITE MAP
IMPORTANT: The SSD Announcement email list is now available. Major changes are coming in the near future, including possible hostname and/or URL changes. To be notified of such changes, subscribe to this email list.

Please visit this page for more details.


JPL Small-Body Database Browser
Search: [ help ]  
71422 (2000 AE195)
Classification: Main-belt Asteroid          SPK-ID: 2071422
Ephemeris | Orbit Diagram | Orbital Elements | Mission Design | Physical Parameters | Discovery Circumstances | Close-Approach Data ]

[ show orbit diagram ]
Orbital Elements at Epoch 2459000.5 (2020-May-31.0) TDB
Reference: JPL 18 (heliocentric ecliptic J2000)
 Element Value Uncertainty (1-sigma)   Units 
e .1528829234030135 4.639e-08  
a 2.742910962510265 1.6092e-08 au
q 2.323566715927522 1.2693e-07 au
i 8.415462753058716 5.8458e-06 deg
node 222.1164840237779 2.7745e-05 deg
peri 207.9527802341163 3.2238e-05 deg
M 218.1711829241597 1.8797e-05 deg
tp 2459654.199228051579
(2022-Mar-15.69922805)
9.0146e-05 TDB
period 1659.26591612711
4.54
1.4602e-05
3.998e-08
d
yr
n .2169634152675633 1.9093e-09 deg/d
Q 3.162255209093009 1.8552e-08 au
  Orbit Determination Parameters
   # obs. used (total)      744  
   data-arc span      8977 days (24.58 yr)  
   first obs. used      1994-12-01  
   last obs. used      2019-06-30  
   planetary ephem.      DE431  
   SB-pert. ephem.      SB431-N16  
   condition code      0  
   norm. resid. RMS      .57579  
   source      ORB  
   producer      Otto Matic  
   solution date      2020-Feb-23 16:26:24  

Additional Information
 Earth MOID = 1.34117 au 
 Jupiter MOID = 2.16347 au 
 T_jup = 3.317 
[ show covariance matrix ]

Ephemeris | Orbit Diagram | Orbital Elements | Mission Design | Physical Parameters | Discovery Circumstances | Close-Approach Data ]

Physical Parameter Table
Parameter Symbol Value Units Sigma Reference Notes
absolute magnitude H 15.0   n/a MPO344813  

71422 (2000 AE195)          Discovered 2000-Jan-08 by LINEAR at Socorro
Reference: 20031109/Numbers.arcLast Updated: 2004-04-19

[ show close-approach data ]
Alternate Designations
 2000 AE195 = 1998 QE74 
Ephemeris | Orbit Diagram | Orbital Elements | Mission Design | Physical Parameters | Discovery Circumstances | Close-Approach Data ]
ABOUT SSD CREDITS/AWARDS PRIVACY/COPYRIGHT GLOSSARY LINKS
FirstGov 2020-Mar-29 23:03 UT
(server date/time)  
NASA Home Page
Site Manager:   Ryan S. Park
Webmaster  Alan B. Chamberlin